CW3111 Weather Reports


Display with metric or nautical units.
time (UTC)temp
F
wind
direction
speed
MPH
gust
MPH
rain 1hr
in
rain 24hr
in
rain mn
in
humidity
%
barometer
mb
20260506111216 49 222 0.0 0.0 0.00 0.00 0.00 93 1022.1
20260506110216 49 222 0.0 0.0 0.00 0.00 0.00 92 1022.0
20260506105216 49 222 0.0 0.0 0.00 0.00 0.00 92 1022.1
20260506104216 49 222 0.0 0.0 0.00 0.00 0.00 92 1022.0
20260506103216 49 222 0.0 0.0 0.00 0.00 0.00 91 1021.7
20260506102216 49 222 0.0 0.0 0.00 0.00 0.00 91 1021.7
20260506101216 49 222 0.0 0.0 0.00 0.00 0.00 91 1021.6
20260506100216 50 222 0.0 0.0 0.00 0.00 0.00 91 1021.7
20260506095216 50 222 0.0 0.0 0.00 0.00 0.00 90 1021.3
20260506094216 50 222 0.0 0.0 0.00 0.00 0.00 90 1021.3
20260506093216 50 222 0.0 0.0 0.00 0.00 0.00 90 1021.2
20260506092216 51 222 0.0 0.0 0.00 0.00 0.00 89 1021.3
20260506091216 51 222 0.0 0.0 0.00 0.00 0.00 90 1021.2
20260506090216 52 222 0.0 0.0 0.00 0.00 0.00 90 1021.3
20260506085216 52 222 0.0 0.0 0.00 0.00 0.00 90 1021.1
20260506084216 52 222 0.0 0.0 0.00 0.00 0.00 89 1021.1
20260506083216 53 222 0.0 0.0 0.00 0.00 0.00 89 1021.1
20260506082216 53 222 0.0 0.0 0.00 0.00 0.00 89 1021.0
20260506081216 54 222 0.0 1.0 0.00 0.00 0.00 89 1021.0
20260506080216 54 222 0.0 3.0 0.00 0.00 0.00 88 1021.1
20260506073216 54 222 0.0 4.0 0.00 0.00 0.00 87 1020.4
20260506071216 55 223 0.0 7.0 0.00 0.00 0.00 87 1020.1
20260506070216 55 223 0.0 5.0 0.00 0.00 0.00 86 1020.1
20260506062216 56 223 0.0 4.0 0.00 0.00 0.00 85 1019.5
20260506061216 56 223 0.0 6.0 0.00 0.00 0.00 84 1019.4
20260506060215 56 223 2.0 5.0 0.00 0.00 0.00 84 1019.4
20260506051216 58 217 0.0 6.0 0.00 0.00 0.00 81 1018.7
20260506050215 59 217 0.0 5.0 0.00 0.00 0.00 81 1018.8
20260506043215 60 217 0.0 5.0 0.00 0.00 0.00 79 1018.3
20260506042215 60 218 0.0 4.0 0.00 0.00 0.00 79 1018.0
20260506041215 61 219 0.0 6.0 0.00 0.00 0.00 78 1018.1
20260506040216 61 219 3.0 7.0 0.00 0.00 0.00 77 1017.8
20260506035215 62 218 0.0 5.0 0.00 0.00 0.00 76 1017.6
20260506034215 62 217 0.0 2.0 0.00 0.00 0.00 76 1017.3
20260506033216 63 217 0.0 6.0 0.00 0.00 0.00 75 1017.2
20260506032216 64 217 1.0 7.0 0.00 0.00 0.00 74 1017.1
20260506031215 64 217 0.0 4.0 0.00 0.00 0.00 74 1017.0
20260506030216 65 217 0.0 6.0 0.00 0.00 0.00 72 1017.0
20260506025216 66 217 0.0 5.0 0.00 0.00 0.00 71 1016.9
20260506024215 67 217 0.0 5.0 0.00 0.00 0.00 70 1016.7
20260506022215 69 218 2.0 5.0 0.00 0.00 0.00 67 1016.4
20260506021216 70 218 0.0 3.0 0.00 0.00 0.00 67 1016.4
20260506020215 70 218 0.0 1.0 0.00 0.00 0.00 66 1016.2
20260506015216 70 218 0.0 0.0 0.00 0.00 0.00 66 1016.0
20260506014215 70 218 0.0 5.0 0.00 0.00 0.00 65 1015.9
20260506013215 71 218 0.0 3.0 0.00 0.00 0.00 65 1016.0
20260506012216 71 218 0.0 6.0 0.00 0.00 0.00 65 1016.0
20260506011215 71 217 0.0 7.0 0.00 0.00 0.00 65 1015.9
20260506010215 72 223 0.0 5.0 0.00 0.00 0.00 64 1015.9
20260506005216 72 223 0.0 6.0 0.00 0.00 0.00 65 1015.8
20260506004216 73 225 0.0 6.0 0.00 0.00 0.00 63 1015.8
20260506003215 73 230 0.0 2.0 0.00 0.00 0.00 64 1015.8
20260506002216 73 230 0.0 8.0 0.00 0.00 0.00 63 1015.8
20260506001216 73 230 2.0 6.0 0.00 0.00 0.00 64 1015.9
20260506000215 73 231 4.0 10.0 0.00 0.00 0.00 65 1015.9
20260505235216 73 225 3.0 7.0 0.00 0.00 0.00 64 1015.9
20260505234215 73 225 2.0 8.0 0.00 0.00 0.00 62 1015.9
20260505233215 74 228 0.0 9.0 0.00 0.00 0.00 62 1015.8
20260505232215 75 228 0.0 9.0 0.00 0.00 0.00 60 1016.0
20260505231215 75 228 3.0 11.0 0.00 0.00 0.00 60 1016.0
20260505230215 76 31 0.0 4.0 0.00 0.00 0.00 57 1016.1
20260505225215 74 32 1.0 4.0 0.00 0.00 0.00 60 1016.1
20260505224215 73 32 0.0 3.0 0.00 0.00 0.00 60 1016.2
20260505222215 73 32 0.0 3.0 0.00 0.00 0.00 61 1016.3
20260505221216 72 32 2.0 5.0 0.00 0.00 0.00 63 1016.4
20260505220216 72 32 0.0 6.0 0.00 0.00 0.00 61 1016.5
20260505213215 71 71 0.0 5.0 0.00 0.00 0.00 62 1016.7
20260505212215 71 78 0.0 5.0 0.00 0.00 0.00 62 1016.8
20260505210215 70 69 0.0 6.0 0.00 0.00 0.00 65 1016.9
20260505203215 69 360 0.0 4.0 0.00 0.00 0.00 66 1017.1
20260505202215 69 348 4.0 7.0 0.00 0.00 0.00 65 1017.1
20260505201215 68 355 0.0 7.0 0.00 0.00 0.00 68 1017.1
20260505195216 66 11 0.0 5.0 0.00 0.00 0.00 69 1017.4
20260505194215 65 9 5.0 8.0 0.00 0.00 0.00 70 1017.5
20260505193215 65 64 2.0 4.0 0.00 0.00 0.00 72 1017.5
20260505192215 65 65 4.0 4.0 0.00 0.00 0.00 73 1017.5
20260505191215 64 65 0.0 4.0 0.00 0.00 0.00 71 1017.5
20260505190215 64 65 2.0 5.0 0.00 0.00 0.00 73 1017.6
20260505185215 63 80 3.0 7.0 0.00 0.00 0.00 72 1017.7
20260505184215 63 228 2.0 4.0 0.00 0.00 0.00 71 1017.7
20260505183215 63 232 0.0 1.0 0.00 0.00 0.00 71 1017.8
20260505181216 63 234 0.0 4.0 0.00 0.00 0.00 70 1017.8
20260505180215 61 235 0.0 5.0 0.00 0.00 0.00 76 1017.5
20260505175215 61 223 0.0 4.0 0.00 0.00 0.00 74 1017.7
20260505174215 59 216 0.0 0.0 0.00 0.00 0.00 76 1017.7
20260505173216 59 216 0.0 0.0 0.00 0.00 0.00 77 1017.6
20260505172215 58 216 0.0 0.0 0.00 0.00 0.00 77 1017.7
20260505171215 58 216 0.0 2.0 0.00 0.00 0.00 78 1017.7
20260505170215 59 217 1.0 3.0 0.00 0.00 0.00 78 1017.8
20260505165215 59 239 0.0 2.0 0.00 0.00 0.00 78 1017.8
20260505164215 58 238 0.0 0.0 0.00 0.00 0.00 79 1017.7
20260505163215 57 238 0.0 3.0 0.00 0.00 0.00 80 1017.6
20260505162215 57 238 0.0 0.0 0.00 0.00 0.00 80 1017.8
20260505161215 56 238 0.0 0.0 0.00 0.00 0.00 82 1017.8
20260505160215 56 238 0.0 0.0 0.00 0.00 0.00 82 1017.8
20260505153215 55 237 0.0 0.0 0.00 0.00 0.00 85 1017.7
20260505152215 55 237 0.0 4.0 0.00 0.00 0.00 85 1017.7
20260505151215 55 229 0.0 0.0 0.00 0.00 0.00 86 1017.7
20260505150215 54 245 0.0 0.0 0.00 0.00 0.00 86 1017.6
20260505140215 53 245 0.0 0.0 0.00 0.02 0.00 87 1017.2
20260505130215 53 228 0.0 1.0 0.00 0.04 0.00 87 1016.8
20260505124215 53 228 0.0 0.0 0.00 0.04 0.00 87 1016.9
20260505123215 53 228 0.0 0.0 0.00 0.05 0.00 87 1016.9
20260505122215 53 228 0.0 3.0 0.00 0.06 0.00 87 1016.9
20260505121215 53 228 0.0 0.0 0.00 0.06 0.00 87 1016.9
20260505120215 53 228 0.0 0.0 0.00 0.07 0.00 86 1016.8
20260505115215 53 228 0.0 0.0 0.00 0.07 0.00 87 1016.7
20260505114215 53 228 0.0 0.0 0.00 0.07 0.00 86 1016.6